Temperature
23 23 22 22 20 19 21 23 25 25 26 27 26 26 25 24 23 22 22 22 22 22 21 21 21 21 21 20 20 20 20 20 19 19 19 19 19 19 19 19 19 19 19 19 19 18 18 18 18
23 23 22 22 19 20 21 24 25 26 26 27 26 26 25 23 23 22 22 22 22 22 21 21 21 21 21 20 20 20 19 19 19 19 19 19 19 19 19 19 18 18 18 18 18 18 18 18 18
23 23 22 19 20 20 23 25 25 26 27 27 26 25 25 23 23 22 22 22 22 22 21 21 21 21 20 20 20 20 19 19 19 19 19 19 19 19 19 18 18 18 18 18 18 18 18 18 18
23 23 22 19 21 22 23 25 25 26 27 27 26 24 24 24 24 23 22 22 22 22 21 21 21 21 20 20 20 19 19 19 19 19 19 19 18 18 18 18 18 18 18 18 18 18 18 18 18
23 22 20 20 21 23 25 26 26 26 26 26 25 24 23 23 24 23 23 22 22 22 21 21 20 20 20 20 19 19 19 19 18 18 19 18 18 18 18 18 18 18 18 18 18 18 18 18 18
23 20 19 20 22 24 25 26 26 26 26 26 25 23 22 23 23 23 22 22 22 21 21 21 20 20 20 19 19 19 19 18 18 18 18 18 18 18 18 18 18 18 18 18 18 18 18 18 18
22 19 20 21 22 24 26 26 26 25 25 26 25 22 22 22 23 22 22 22 21 21 20 20 20 20 19 19 19 19 18 18 18 18 18 18 18 18 18 18 18 18 18 18 18 18 18 18 18
24 20 21 21 23 24 26 27 27 26 25 26 25 22 22 22 22 22 21 21 21 21 20 20 20 19 19 19 19 18 18 18 18 18 18 18 18 17 17 17 17 17 18 18 18 17 17 17 17
24 20 20 22 23 24 26 26 27 26 26 25 25 24 24 23 22 21 21 20 20 20 20 20 19 19 19 19 18 18 18 18 18 18 17 17 17 17 17 17 17 17 17 17 17 17 17 17 17
23 20 21 23 24 24 25 26 26 26 24 24 24 24 23 22 22 21 20 20 20 20 20 19 19 19 19 18 18 18 18 18 17 17 17 17 17 17 17 17 17 17 17 17 17 17 17 17 17
23 22 23 25 26 26 26 26 26 25 23 23 23 23 22 22 21 21 20 20 20 20 20 19 19 19 19 18 18 18 18 17 17 17 17 17 17 17 17 17 17 17 17 17 17 17 17 17 17
23 24 25 26 26 26 26 26 25 25 25 25 24 24 23 22 21 21 20 20 20 20 19 19 19 19 18 18 18 18 17 17 17 17 17 17 17 17 17 16 16 16 16 17 17 17 16 16 16
23 24 26 26 27 26 26 25 25 25 25 24 24 23 22 22 21 21 21 20 20 19 19 19 19 18 18 18 18 17 17 17 17 17 17 17 17 16 16 16 16 16 16 16 16 16 16 16 16
24 24 25 26 26 26 25 25 25 24 24 24 23 23 22 22 21 21 20 20 20 19 19 19 18 18 18 18 18 17 17 17 17 17 17 17 16 16 16 16 16 16 16 16 16 16 16 16 16
25 24 23 24 25 25 25 24 23 24 24 23 23 22 22 22 21 21 21 20 20 19 19 19 18 18 18 18 17 17 17 17 16 16 16 16 16 16 16 16 16 16 16 16 16 16 16 16 16
23 23 22 23 24 25 24 23 23 24 23 23 22 22 21 21 21 21 21 20 20 19 19 19 18 18 18 17 17 17 16 16 16 16 16 16 16 16 16 16 16 16 16 16 16 16 16 16 16
21 21 22 23 24 24 23 22 23 24 23 22 22 21 21 21 21 21 21 20 20 19 19 19 18 18 18 17 17 17 16 16 16 16 16 16 16 16 16 16 16 16 16 16 15 15 15 15 15
21 22 23 23 23 23 22 22 23 23 23 22 21 21 21 21 21 20 20 20 20 19 19 18 18 18 17 17 17 16 16 16 16 16 16 16 16 16 16 16 16 16 16 16 15 15 15 15 15
22 22 22 23 23 22 22 22 22 22 22 21 21 21 21 20 20 20 20 19 19 19 19 18 18 18 17 17 16 16 16 16 16 16 16 16 16 16 16 16 16 16 16 15 15 15 15 15 15
22 22 22 22 23 23 21 21 21 21 21 21 21 20 20 20 20 20 19 19 19 18 18 18 18 17 17 17 16 16 16 16 16 16 16 16 16 16 16 16 16 16 16 15 15 15 15 15 15
23 22 22 22 22 22 21 21 20 21 21 21 21 20 20 20 20 19 19 19 18 18 18 18 18 17 17 17 16 16 16 16 16 16 16 15 15 15 15 15 16 16 15 15 15 15 15 15 15
22 23 24 23 21 19 21 19 19 20 20 20 20 19 19 19 19 19 19 18 18 18 18 17 17 17 16 16 16 16 16 16 16 15 15 15 15 15 15 15 15 15 15 15 15 15 15 15 14
23 24 23 23 21 19 19 19 19 19 19 19 19 19 19 19 19 19 19 18 18 18 17 17 17 17 16 16 16 16 16 16 15 15 15 15 15 15 15 15 15 15 15 15 15 15 14 14 14
24 23 22 20 18 19 19 19 18 18 19 19 19 19 19 19 18 18 18 18 18 17 17 17 16 16 16 16 16 16 16 15 15 15 15 15 15 15 15 15 15 15 15 15 15 15 14 14 14
23 20 19 19 18 18 19 19 18 19 19 19 19 19 19 19 18 18 18 18 18 17 17 17 17 16 16 16 15 15 15 15 15 15 15 15 15 15 15 15 15 15 14 14 14 14 14 14 14
21 20 19 19 18 18 19 18 18 19 19 19 19 19 18 18 18 18 18 18 18 17 17 17 16 16 16 16 15 15 15 15 15 15 15 15 15 15 15 15 15 14 14 14 14 14 14 14 13
22 20 19 18 18 18 18 18 18 18 18 18 18 18 18 18 18 18 18 18 18 17 17 17 16 16 16 16 15 15 15 15 15 15 15 15 15 15 15 14 14 14 14 14 14 14 13 13 13
21 20 18 18 18 18 19 18 18 18 18 17 17 17 17 18 18 18 18 17 17 17 17 17 16 16 16 15 15 15 15 15 15 15 15 15 15 15 14 14 14 14 14 14 14 14 13 13 13
21 20 18 17 17 18 18 18 18 17 17 17 17 17 17 17 18 18 17 17 17 17 17 16 16 16 15 15 15 15 15 15 15 15 15 14 14 14 14 14 14 14 14 13 13 13 13 13 13
21 20 18 18 17 17 17 17 19 17 17 17 17 17 17 18 18 18 17 17 17 16 16 16 16 15 15 15 15 15 15 15 14 14 14 14 14 14 14 14 14 14 13 13 13 13 13 13 13
Wind_Speed
4 3 2 3 4 4 2 4 2 2 2 3 6 8 8 5 4 4 3 12 15 13 12 15 16 16 15 15 14 14 14 14 14 14 13 13 14 14 14 14 13 13 12 12 12 10 10 10 9
2 2 3 4 4 2 4 2 2 2 4 6 7 8 7 6 6 8 6 12 15 14 12 14 16 16 15 15 14 13 13 13 13 13 13 12 12 13 12 13 13 12 11 11 10 9 9 8 8
2 2 3 3 2 3 4 2 1 1 3 4 4 4 5 6 6 7 9 15 13 11 12 15 17 16 15 14 14 13 13 13 13 13 13 12 12 11 11 11 12 11 10 9 9 8 7 7 7
1 3 4 3 3 5 5 5 1 2 3 3 6 5 4 4 6 9 15 16 14 11 11 14 17 16 15 14 13 13 13 12 12 13 12 12 11 11 10 10 10 10 9 8 8 7 7 6 6
3 4 3 2 4 5 5 5 1 1 2 4 6 6 4 4 12 16 15 14 14 11 9 13 15 15 15 14 13 13 13 12 11 11 11 11 11 10 10 9 9 9 8 8 7 6 6 6 5
3 4 3 2 5 6 4 2 2 3 3 5 7 6 2 6 14 15 14 12 12 12 9 11 14 14 14 14 13 13 12 11 10 10 10 11 10 10 9 9 9 8 8 8 7 6 6 5 5
4 3 3 4 4 5 5 1 2 2 3 3 6 6 3 5 10 13 13 12 11 10 8 7 10 12 13 12 12 12 11 11 10 9 9 10 10 9 9 9 9 8 8 7 7 6 6 6 6
5 3 2 2 3 5 4 1 2 4 2 4 6 7 6 7 9 12 11 11 10 9 7 6 6 8 8 9 10 10 10 10 9 9 9 9 9 9 9 8 9 8 8 7 7 7 7 6 6
3 2 4 5 4 4 3 2 1 2 3 2 3 5 7 13 12 12 11 9 8 8 6 5 5 5 6 7 8 9 9 9 8 7 8 7 6 6 6 6 7 7 7 7 6 7 6 6 6
5 4 8 6 5 4 4 2 0 2 3 2 5 7 11 13 13 12 11 10 9 8 7 6 5 5 5 6 6 6 6 7 6 6 5 5 5 5 6 6 6 6 6 6 6 7 6 5 5
5 7 7 7 7 5 5 3 1 4 2 5 9 12 12 12 12 11 10 10 9 8 7 6 6 5 5 4 5 4 4 4 5 5 5 4 3 3 3 3 3 4 4 4 4 4 3 3 2
4 7 7 7 6 4 5 2 1 3 6 7 12 13 12 13 12 11 10 9 8 7 6 6 6 6 5 4 4 3 2 3 3 5 6 5 2 1 2 2 2 2 2 2 2 2 2 2 3
5 7 8 7 6 6 3 3 3 1 4 7 11 12 12 12 10 10 10 10 9 8 5 5 6 6 5 5 4 4 3 3 4 4 6 6 3 3 2 1 2 1 2 2 2 2 2 2 2
6 6 7 7 6 3 3 3 2 3 5 8 11 11 11 11 11 9 9 9 9 9 7 6 7 6 6 5 4 3 3 3 4 4 4 6 5 3 3 2 1 1 2 2 2 2 2 2 1
4 5 8 7 5 4 3 2 2 5 6 8 9 11 10 9 9 9 10 9 8 8 8 7 7 7 6 5 4 4 3 4 3 4 5 5 5 4 3 3 2 2 2 1 1 1 1 1 1
4 3 5 7 4 3 4 4 5 4 7 7 8 10 9 8 8 8 8 8 7 8 7 7 8 7 6 5 3 3 3 4 3 4 4 4 5 5 3 2 2 2 2 2 1 1 1 0 0
3 2 6 7 4 2 2 4 5 3 6 8 9 9 9 8 7 7 8 8 8 8 8 7 7 7 6 5 3 2 2 3 3 3 3 4 4 5 4 2 2 3 2 1 1 1 2 1 0
6 5 5 5 4 1 1 4 3 2 5 7 8 8 8 9 8 8 8 8 7 7 7 7 7 6 6 4 3 2 2 2 2 2 3 4 4 5 4 2 2 2 2 1 1 1 1 1 1
7 7 8 8 5 1 3 4 3 2 4 6 7 7 6 6 6 7 7 7 7 6 7 7 7 6 5 4 3 3 2 1 1 2 3 4 4 4 3 2 2 2 2 2 2 1 1 0 1
8 9 9 6 5 2 2 3 2 1 3 7 8 8 7 5 5 6 6 6 5 6 7 7 6 6 5 4 3 2 2 2 2 1 2 3 4 4 4 3 2 2 2 2 1 2 1 0 1
10 9 8 6 4 2 1 4 3 3 0 3 6 8 8 10 9 7 7 5 6 5 6 6 6 5 5 4 3 3 3 2 2 1 1 1 3 4 3 3 2 2 2 2 2 3 3 1 0
9 9 6 3 1 3 1 2 6 4 3 3 5 7 9 9 9 9 8 7 7 6 5 5 5 4 3 4 4 4 3 2 2 2 1 1 1 2 3 3 3 2 2 2 2 2 2 3 1
9 6 3 2 2 1 1 2 6 3 3 4 5 7 7 9 10 9 9 9 8 7 6 5 5 4 3 3 4 4 3 2 2 2 2 1 1 1 2 3 2 2 1 2 1 2 2 2 3
5 2 4 4 3 2 4 3 5 4 5 4 4 6 7 8 8 8 8 8 7 6 6 6 6 4 3 4 4 4 4 3 4 3 2 1 0 0 1 2 2 2 1 1 1 2 2 2 2
1 2 3 4 2 5 2 3 5 5 4 4 5 6 7 8 8 9 8 9 8 7 7 6 6 5 4 4 3 3 4 4 4 3 3 2 1 0 0 1 2 1 1 1 1 2 1 1 2
5 7 6 5 5 4 1 3 4 4 2 1 3 6 6 7 7 9 9 10 9 9 7 7 7 5 4 4 3 3 4 3 3 3 3 3 2 2 2 2 2 1 1 1 1 1 1 1 1
2 3 7 6 1 1 2 2 4 3 2 2 3 5 5 6 7 8 8 9 9 9 8 8 7 6 5 5 4 3 3 3 3 3 3 2 2 2 2 2 1 1 1 1 2 1 1 1 1
4 3 4 4 2 2 2 2 3 3 2 0 2 4 5 4 4 6 7 7 7 8 7 6 6 6 4 4 4 4 3 3 3 3 3 3 3 2 3 2 1 1 1 1 1 1 1 2 1
2 2 3 3 4 4 3 5 4 7 5 4 4 4 4 5 5 5 5 6 6 6 6 6 5 4 4 4 3 3 2 2 2 2 3 3 3 4 3 2 2 1 0 0 1 1 1 1 0
4 5 5 4 3 3 3 5 4 6 5 5 4 3 3 4 5 6 6 6 6 6 6 5 4 4 4 4 3 3 3 3 2 2 2 2 3 3 3 2 2 1 1 0 1 1 1 1 1
Wind_Direction
224 211 139 72 51 43 286 258 144 64 46 69 89 94 98 90 124 150 154 144 140 148 151 147 141 135 131 128 125 122 121 120 121 120 117 117 119 119 120 122 123 124 126 127 125 125 126 123 120
206 186 68 59 77 32 287 250 96 145 151 114 93 91 83 72 93 119 130 148 144 148 150 148 144 139 137 134 132 130 128 127 128 128 126 125 126 127 128 128 127 127 129 132 132 132 133 130 125
235 168 90 73 108 186 257 300 36 88 127 112 102 83 96 120 120 136 150 145 140 143 147 150 146 144 142 140 138 137 136 134 135 136 135 134 134 135 135 136 135 134 135 136 136 137 138 135 132
91 53 53 73 240 236 238 265 291 31 58 67 107 83 70 112 133 137 140 141 138 139 144 150 148 147 145 145 144 144 144 141 141 143 143 142 143 143 144 145 144 143 142 143 144 147 147 144 143
75 79 51 330 268 255 253 252 238 63 90 81 92 98 65 57 116 132 139 140 139 140 144 150 148 148 150 151 151 150 150 150 147 147 149 150 150 149 150 152 151 150 152 153 157 160 161 164 165
52 76 92 258 276 287 280 224 119 99 105 106 98 98 102 118 126 139 137 139 140 141 144 148 148 149 153 155 157 156 157 155 152 152 154 156 155 155 156 157 159 161 162 164 169 174 179 183 185
131 119 195 227 278 292 287 254 132 127 113 130 126 111 126 140 140 140 135 133 133 135 139 141 149 151 154 156 157 158 159 156 155 153 155 159 165 168 168 171 174 174 175 178 182 188 198 205 209
157 115 281 257 264 284 292 355 130 136 137 129 120 130 168 176 145 129 127 126 128 131 139 145 142 144 149 156 158 156 154 151 151 153 160 163 171 178 178 180 188 189 188 191 199 206 214 223 229
130 94 247 238 228 266 297 7 19 111 110 83 107 136 164 145 131 121 119 117 124 132 143 144 142 142 148 156 159 156 155 151 150 156 163 163 168 174 178 182 187 194 199 205 213 223 227 233 241
138 179 233 229 220 250 273 266 5 71 74 76 84 96 126 131 128 128 134 136 141 153 159 153 145 142 140 151 146 146 150 155 157 156 155 152 159 173 182 191 197 206 207 213 220 231 238 241 243
183 204 238 252 247 245 260 282 73 133 176 167 148 145 139 130 133 135 144 147 152 161 159 160 157 153 150 141 139 143 144 154 165 162 156 156 157 165 183 182 210 223 225 231 243 252 249 242 236
228 245 244 253 252 238 240 220 115 161 197 173 151 144 143 143 146 148 153 157 153 158 164 164 163 152 147 135 139 144 151 158 166 170 159 152 149 153 175 181 191 207 226 227 234 232 233 238 250
255 260 267 264 258 244 218 209 161 195 188 146 138 137 143 150 152 155 156 155 154 160 159 164 157 149 147 137 151 155 171 170 170 165 162 157 158 167 175 179 172 198 208 200 206 228 233 238 249
246 264 278 275 268 249 176 233 144 222 159 139 138 146 154 155 152 149 149 155 158 159 157 165 164 160 148 146 156 158 167 166 157 154 158 158 154 160 167 168 166 195 207 204 204 208 216 225 225
274 297 302 281 260 236 123 329 221 206 157 149 146 151 154 156 149 153 160 162 161 158 157 163 155 148 145 149 153 152 160 153 154 159 162 163 157 161 162 161 170 187 189 189 193 197 160 197 224
335 315 284 279 267 255 130 238 253 204 159 155 150 150 151 156 156 156 153 154 155 152 152 157 151 142 145 145 138 147 158 155 165 164 163 171 167 163 155 162 173 162 150 148 162 176 130 114 121
338 262 261 286 284 272 146 219 249 210 160 156 152 152 150 151 152 151 155 155 156 157 151 148 140 142 146 140 130 131 140 149 156 149 154 162 160 156 147 159 160 151 134 135 172 135 142 147 189
255 258 266 269 291 348 258 237 249 191 154 161 153 155 155 157 163 159 155 156 154 150 145 143 142 146 141 129 109 88 87 117 126 142 151 150 149 146 135 137 143 131 118 112 112 133 124 149 184
247 261 269 264 261 298 255 243 250 181 151 157 161 163 162 161 149 141 148 152 147 143 141 144 146 151 146 141 140 140 146 147 129 160 151 146 143 142 138 145 143 138 138 156 148 144 120 89 93
256 261 264 273 267 222 241 272 260 180 175 174 172 164 162 152 131 139 144 137 148 161 151 147 150 154 158 161 163 159 152 164 161 142 128 142 144 149 152 151 150 146 139 129 132 132 135 194 116
261 245 244 240 284 345 46 328 294 288 200 148 162 159 160 160 159 163 158 152 149 154 160 156 158 159 156 149 129 109 84 72 69 82 108 151 158 158 150 149 141 142 140 156 171 155 149 172 251
258 249 246 243 201 277 129 270 283 263 278 185 174 168 168 161 158 159 158 160 161 159 144 133 139 137 140 138 138 141 141 151 190 176 171 167 163 158 152 143 137 138 140 159 179 152 154 148 176
237 247 245 229 178 318 343 154 280 278 258 242 196 179 170 163 160 160 161 162 158 150 141 134 126 121 119 126 141 141 137 156 144 124 128 131 123 149 143 132 130 135 140 144 145 133 135 149 167
243 323 5 33 63 294 248 184 260 245 231 229 200 184 173 162 158 156 154 147 141 139 137 133 131 133 136 130 133 140 141 139 126 122 133 142 106 95 118 128 120 125 126 138 156 148 144 159 166
288 96 18 350 347 254 233 179 243 260 226 193 200 188 176 167 159 153 152 150 149 150 149 148 147 147 150 143 144 150 153 152 153 155 152 149 144 160 201 134 131 130 131 142 131 124 121 143 158
235 162 167 208 226 263 306 215 247 268 268 175 170 168 162 163 163 165 163 161 163 164 162 158 157 156 160 157 164 163 155 157 167 168 159 171 185 193 184 147 150 139 127 118 122 113 129 121 142
190 202 178 155 195 220 259 272 297 333 8 64 117 135 145 156 164 173 167 166 165 165 168 167 162 162 170 170 168 169 165 163 172 180 164 169 183 178 159 144 133 135 136 133 126 114 152 133 146
156 152 95 117 155 246 266 253 250 255 256 84 136 158 157 151 149 162 163 167 170 169 167 162 162 170 173 175 178 177 176 173 174 169 171 171 177 160 146 146 143 138 148 138 123 129 150 120 124
131 99 112 127 153 164 235 261 223 207 213 201 202 180 164 158 161 162 164 163 152 148 149 154 157 163 170 176 177 159 160 171 164 170 188 182 170 159 159 166 163 159 188 160 143 172 135 121 328
154 163 151 157 212 167 181 260 251 197 204 196 199 190 166 165 166 162 157 150 145 147 151 151 159 160 160 157 152 156 152 149 150 172 185 174 173 170 165 159 149 139 129 145 159 198 167 185 227
Height
1511 1511 1511 1512 1514 1522 1524 1510 1499 1496 1494 1492 1491 1491 1495 1499 1504 1511 1507 1506 1508 1509 1510 1512 1513 1513 1514 1515 1516 1516 1517 1518 1519 1520 1521 1522 1523 1523 1524 1525 1526 1528 1529 1530 1530 1531 1532 1533 1534
1511 1511 1513 1512 1521 1533 1524 1505 1499 1495 1493 1492 1493 1493 1495 1499 1500 1502 1504 1506 1508 1509 1510 1511 1513 1513 1514 1515 1515 1516 1517 1518 1519 1520 1521 1522 1523 1524 1524 1525 1526 1527 1528 1529 1530 1531 1532 1533 1534
1511 1511 1513 1515 1524 1528 1518 1502 1497 1494 1492 1491 1493 1495 1496 1500 1501 1502 1504 1506 1507 1509 1510 1511 1512 1513 1514 1514 1515 1516 1517 1517 1518 1519 1520 1521 1523 1523 1524 1525 1526 1527 1528 1529 1530 1531 1532 1533 1534
1511 1512 1513 1520 1523 1514 1506 1499 1496 1495 1493 1492 1493 1496 1498 1501 1501 1503 1504 1505 1507 1508 1510 1511 1512 1512 1513 1514 1515 1516 1516 1517 1518 1519 1520 1521 1522 1523 1524 1525 1526 1527 1528 1529 1530 1530 1532 1533 1534
1511 1512 1518 1524 1517 1506 1499 1496 1494 1494 1494 1494 1494 1497 1500 1502 1502 1503 1504 1506 1506 1508 1509 1510 1511 1512 1513 1514 1515 1515 1516 1517 1517 1518 1519 1520 1522 1523 1524 1525 1525 1526 1527 1528 1529 1530 1531 1532 1534
1511 1512 1525 1528 1515 1502 1497 1494 1494 1494 1494 1494 1495 1499 1502 1503 1502 1504 1505 1506 1507 1508 1509 1510 1511 1512 1513 1514 1514 1515 1515 1516 1517 1518 1518 1520 1521 1522 1523 1524 1525 1526 1527 1528 1528 1529 1530 1532 1533
1512 1516 1522 1518 1514 1505 1496 1493 1493 1493 1493 1494 1494 1498 1502 1503 1503 1504 1505 1506 1507 1508 1509 1509 1510 1511 1512 1513 1514 1514 1515 1516 1516 1517 1518 1519 1520 1521 1522 1523 1524 1525 1526 1527 1528 1529 1529 1531 1532
1508 1513 1517 1516 1512 1505 1495 1493 1492 1493 1493 1494 1494 1497 1500 1503 1503 1504 1505 1506 1506 1507 1508 1509 1510 1510 1511 1512 1513 1514 1514 1515 1516 1517 1518 1518 1519 1520 1521 1523 1523 1524 1525 1526 1527 1528 1529 1530 1531
1507 1516 1520 1513 1508 1502 1494 1493 1493 1492 1491 1492 1493 1495 1497 1500 1501 1503 1504 1505 1506 1507 1508 1508 1509 1510 1511 1512 1513 1513 1514 1514 1515 1516 1517 1518 1518 1519 1521 1522 1523 1523 1524 1525 1526 1527 1528 1529 1530
1504 1515 1510 1500 1498 1496 1493 1492 1492 1493 1493 1494 1493 1495 1497 1499 1499 1501 1502 1502 1504 1506 1507 1508 1509 1509 1510 1511 1512 1513 1513 1514 1515 1515 1516 1517 1518 1519 1520 1521 1522 1523 1524 1524 1525 1526 1527 1528 1529
1500 1503 1497 1494 1493 1493 1491 1490 1490 1492 1494 1493 1492 1493 1496 1497 1498 1499 1500 1501 1502 1505 1506 1507 1508 1509 1509 1510 1511 1512 1513 1513 1514 1515 1515 1516 1518 1518 1519 1520 1521 1522 1523 1523 1524 1524 1525 1526 1527
1498 1494 1492 1491 1490 1490 1490 1489 1489 1490 1490 1490 1490 1491 1493 1495 1496 1497 1499 1501 1501 1503 1504 1506 1507 1508 1509 1510 1511 1511 1512 1512 1513 1514 1514 1516 1517 1518 1518 1519 1520 1521 1522 1522 1522 1523 1524 1524 1525
1495 1492 1489 1488 1488 1488 1488 1488 1488 1488 1488 1490 1490 1491 1492 1493 1495 1497 1498 1500 1501 1501 1503 1504 1506 1506 1508 1508 1509 1510 1511 1512 1512 1513 1514 1514 1516 1516 1517 1518 1519 1520 1521 1521 1521 1522 1522 1523 1523
1491 1489 1488 1486 1485 1486 1486 1487 1488 1488 1487 1488 1488 1489 1491 1492 1493 1495 1496 1497 1499 1500 1501 1503 1505 1505 1507 1508 1509 1509 1510 1510 1511 1512 1512 1513 1514 1515 1516 1517 1518 1519 1519 1520 1520 1520 1520 1521 1521
1489 1490 1488 1484 1483 1483 1484 1489 1487 1486 1486 1487 1488 1488 1490 1492 1492 1493 1495 1496 1498 1499 1501 1502 1502 1504 1505 1507 1508 1508 1509 1509 1510 1510 1511 1512 1512 1513 1514 1515 1516 1517 1518 1518 1518 1519 1519 1519 1519
1490 1494 1497 1485 1481 1481 1487 1496 1486 1485 1484 1486 1487 1488 1489 1490 1491 1493 1495 1496 1498 1499 1500 1501 1502 1503 1504 1506 1507 1507 1508 1508 1509 1509 1510 1511 1511 1512 1513 1514 1515 1516 1516 1516 1516 1516 1517 1517 1517
1497 1502 1499 1488 1479 1479 1484 1491 1484 1483 1484 1484 1486 1487 1487 1489 1491 1493 1494 1496 1497 1498 1499 1500 1502 1503 1504 1505 1505 1506 1507 1507 1508 1508 1509 1509 1510 1511 1512 1512 1513 1514 1514 1514 1514 1514 1515 1515 1515
1504 1500 1495 1491 1483 1481 1485 1487 1481 1482 1483 1484 1485 1486 1486 1487 1489 1492 1493 1495 1497 1497 1499 1500 1501 1502 1503 1504 1504 1505 1506 1506 1507 1507 1508 1508 1509 1510 1510 1511 1511 1512 1512 1512 1512 1513 1513 1513 1514
1492 1494 1494 1488 1481 1484 1486 1485 1481 1481 1482 1484 1485 1485 1486 1487 1489 1490 1492 1494 1496 1497 1497 1499 1500 1501 1502 1502 1503 1504 1504 1505 1506 1506 1507 1507 1508 1508 1509 1509 1510 1510 1510 1510 1511 1511 1512 1512 1512
1489 1493 1491 1486 1479 1482 1486 1485 1481 1480 1480 1482 1483 1483 1485 1487 1488 1490 1492 1493 1495 1495 1496 1498 1499 1500 1501 1502 1502 1503 1504 1504 1505 1505 1506 1506 1507 1507 1508 1508 1508 1509 1508 1509 1509 1510 1510 1510 1511
1486 1489 1487 1486 1482 1481 1486 1491 1486 1481 1480 1481 1481 1480 1481 1483 1486 1488 1490 1491 1492 1494 1495 1497 1498 1499 1500 1501 1501 1502 1503 1504 1504 1504 1505 1505 1506 1506 1507 1507 1507 1507 1507 1507 1507 1508 1508 1508 1509
1487 1475 1476 1479 1489 1497 1492 1507 1491 1483 1482 1480 1480 1480 1480 1481 1483 1485 1488 1489 1491 1493 1494 1496 1498 1498 1499 1500 1501 1501 1501 1502 1503 1503 1504 1504 1505 1505 1506 1506 1506 1505 1505 1505 1506 1506 1506 1507 1507
1475 1469 1472 1477 1487 1496 1494 1504 1497 1484 1485 1480 1478 1479 1478 1479 1481 1483 1485 1487 1489 1491 1493 1495 1497 1498 1498 1499 1500 1501 1501 1502 1503 1503 1503 1504 1504 1505 1505 1505 1504 1504 1504 1504 1504 1504 1504 1505 1505
1466 1471 1476 1483 1492 1506 1497 1503 1501 1488 1482 1479 1477 1477 1477 1478 1480 1483 1484 1486 1488 1490 1492 1494 1495 1496 1497 1498 1499 1500 1501 1501 1502 1502 1502 1503 1503 1504 1504 1504 1504 1503 1502 1502 1502 1502 1502 1502 1503
1469 1486 1504 1508 1512 1508 1493 1498 1496 1480 1476 1475 1475 1475 1475 1477 1479 1481 1483 1485 1487 1489 1491 1492 1493 1494 1496 1497 1498 1499 1500 1501 1501 1501 1502 1503 1503 1503 1503 1503 1503 1502 1501 1501 1501 1501 1501 1501 1501
1471 1480 1503 1514 1514 1506 1494 1497 1489 1476 1473 1471 1471 1472 1474 1476 1477 1479 1481 1483 1486 1488 1490 1491 1492 1493 1495 1496 1497 1498 1499 1500 1501 1501 1502 1502 1502 1502 1502 1502 1502 1501 1501 1501 1501 1501 1501 1500 1500
1470 1477 1478 1495 1500 1506 1501 1493 1483 1475 1473 1472 1471 1472 1473 1475 1477 1479 1481 1483 1485 1487 1489 1490 1491 1493 1494 1495 1496 1497 1498 1499 1500 1501 1501 1502 1502 1502 1502 1502 1501 1501 1501 1501 1501 1500 1500 1500 1499
1463 1469 1483 1495 1505 1509 1501 1496 1491 1480 1477 1474 1474 1474 1474 1475 1478 1480 1482 1483 1485 1486 1488 1490 1491 1492 1493 1494 1495 1497 1498 1498 1499 1500 1501 1501 1501 1501 1501 1501 1501 1501 1501 1501 1500 1500 1500 1499 1499
1466 1473 1481 1491 1494 1504 1509 1500 1476 1476 1474 1474 1474 1474 1475 1475 1477 1479 1480 1482 1484 1486 1487 1488 1490 1491 1492 1493 1495 1496 1497 1498 1498 1499 1499 1500 1500 1500 1501 1501 1501 1500 1500 1500 1500 1499 1499 1498 1498
1461 1468 1478 1491 1495 1495 1501 1496 1469 1470 1470 1471 1472 1473 1474 1475 1476 1477 1480 1482 1483 1485 1486 1487 1488 1490 1491 1492 1493 1495 1496 1496 1497 1497 1498 1499 1499 1499 1499 1500 1500 1500 1500 1499 1499 1498 1498 1498 1497